AUA26K LOWW-EDDS

Flight info

Callsign AUA26K
Flight time 0h 54m
Altitude 30000
Route LUGEM1C/29 LUGEM DCT KIRDI DCT EBEDA L173 MAH/N0372F240 L173 DODIL T127 TEKSI TEKSI1W
Aircraft A320/M-SDE3FGHIRWY/LB1

Departure

Time 2026-05-07 19:06
Airport Vienna International Airport (LOWW)

Arrival

Time 2026-05-07 20:01
Airport Stuttgart Airport (EDDS)
Time Latitude Longitude Altitude Speed Heading
2026-05-07 18:30 48.11730 16.56739 625 ft 0 kts 25°
2026-05-07 18:42 48.11730 16.56738 610 ft 0 kts 25°
2026-05-07 18:54 48.11716 16.56729 626 ft 4 kts 25°
2026-05-07 18:54 48.11697 16.56715 615 ft 4 kts 30°
2026-05-07 18:54 48.11676 16.56691 615 ft 4 kts 53°
2026-05-07 18:54 48.11666 16.56657 626 ft 4 kts 102°
2026-05-07 18:55 48.11673 16.56629 626 ft 0 kts 116°
2026-05-07 18:59 48.11667 16.56649 626 ft 5 kts 116°
2026-05-07 18:59 48.11641 16.56729 610 ft 13 kts 116°
2026-05-07 19:00 48.11595 16.56870 616 ft 14 kts 116°
2026-05-07 19:00 48.11518 16.56908 613 ft 13 kts 201°
2026-05-07 19:00 48.11452 16.56862 614 ft 7 kts 205°
2026-05-07 19:00 48.11418 16.56838 616 ft 2 kts 206°
2026-05-07 19:01 48.11374 16.56815 615 ft 12 kts 175°
2026-05-07 19:01 48.11324 16.56923 615 ft 15 kts 116°
2026-05-07 19:01 48.11279 16.57060 615 ft 14 kts 115°
2026-05-07 19:01 48.11235 16.57197 619 ft 15 kts 116°
2026-05-07 19:02 48.11190 16.57333 614 ft 14 kts 116°
2026-05-07 19:02 48.11152 16.57452 618 ft 10 kts 115°
2026-05-07 19:02 48.11134 16.57509 619 ft 3 kts 116°
2026-05-07 19:02 48.11126 16.57531 616 ft 2 kts 118°
2026-05-07 19:03 48.11121 16.57544 620 ft 1 kts 117°
2026-05-07 19:03 48.11113 16.57571 616 ft 3 kts 115°
2026-05-07 19:03 48.11093 16.57631 617 ft 6 kts 116°
2026-05-07 19:03 48.11090 16.57641 615 ft 0 kts 116°
2026-05-07 19:04 48.11065 16.57653 619 ft 8 kts 180°
2026-05-07 19:05 48.11008 16.57621 610 ft 10 kts 205°
2026-05-07 19:05 48.10941 16.57562 619 ft 10 kts 212°
2026-05-07 19:05 48.10923 16.57509 613 ft 5 kts 281°
2026-05-07 19:05 48.10936 16.57468 613 ft 6 kts 296°
2026-05-07 19:06 48.11036 16.57155 617 ft 69 kts 296°
2026-05-07 19:06 48.11806 16.54791 635 ft 173 kts 292°
2026-05-07 19:06 48.12282 16.53202 1343 ft 163 kts 279°
2026-05-07 19:07 48.12293 16.51503 1918 ft 169 kts 260°
2026-05-07 19:07 48.12061 16.49671 2276 ft 188 kts 258°
2026-05-07 19:07 48.11762 16.47693 2730 ft 204 kts 256°
2026-05-07 19:07 48.11344 16.45554 3169 ft 224 kts 253°
2026-05-07 19:08 48.10885 16.43225 3673 ft 244 kts 255°
2026-05-07 19:08 48.10436 16.40711 4232 ft 259 kts 257°
2026-05-07 19:08 48.09987 16.38054 5175 ft 260 kts 258°
2026-05-07 19:08 48.09791 16.35391 5992 ft 264 kts 270°
2026-05-07 19:09 48.09807 16.32639 6846 ft 266 kts 272°
2026-05-07 19:09 48.09868 16.29853 7669 ft 269 kts 273°
2026-05-07 19:09 48.09954 16.27044 8525 ft 271 kts 274°
2026-05-07 19:09 48.10045 16.24211 9322 ft 275 kts 273°
2026-05-07 19:10 48.10128 16.21335 10113 ft 278 kts 273°
2026-05-07 19:10 48.10308 16.18407 10618 ft 292 kts 277°
2026-05-07 19:10 48.10573 16.15288 10900 ft 313 kts 277°
2026-05-07 19:10 48.10879 16.11993 11387 ft 324 kts 278°
2026-05-07 19:11 48.11200 16.08627 12064 ft 329 kts 278°
2026-05-07 19:11 48.11526 16.05226 12869 ft 330 kts 277°
2026-05-07 19:11 48.11847 16.01808 13630 ft 333 kts 277°
2026-05-07 19:11 48.12159 15.98360 14298 ft 336 kts 277°
2026-05-07 19:12 48.12462 15.94868 14897 ft 341 kts 276°
2026-05-07 19:12 48.12762 15.91333 15509 ft 344 kts 276°
2026-05-07 19:12 48.13062 15.87763 16130 ft 348 kts 276°
2026-05-07 19:12 48.13367 15.84151 16752 ft 351 kts 276°
2026-05-07 19:13 48.13677 15.80517 17364 ft 354 kts 276°
2026-05-07 19:13 48.13996 15.76839 17989 ft 357 kts 276°
2026-05-07 19:13 48.14322 15.73142 18556 ft 360 kts 276°
2026-05-07 19:13 48.14649 15.69412 19116 ft 362 kts 276°
2026-05-07 19:14 48.14972 15.65657 19676 ft 365 kts 276°
2026-05-07 19:14 48.15294 15.61882 20232 ft 367 kts 276°
2026-05-07 19:14 48.15620 15.58079 20782 ft 369 kts 276°
2026-05-07 19:14 48.15949 15.54257 21332 ft 372 kts 276°
2026-05-07 19:15 48.16280 15.50405 21878 ft 374 kts 276°
2026-05-07 19:15 48.16610 15.46522 22417 ft 377 kts 275°
2026-05-07 19:15 48.16937 15.42609 22949 ft 380 kts 275°
2026-05-07 19:15 48.17233 15.38673 23456 ft 382 kts 271°
2026-05-07 19:16 48.17334 15.34686 23906 ft 384 kts 270°
2026-05-07 19:16 48.17433 15.30679 24325 ft 386 kts 270°
2026-05-07 19:16 48.17536 15.26650 24746 ft 388 kts 270°
2026-05-07 19:16 48.17638 15.22594 25165 ft 390 kts 270°
2026-05-07 19:17 48.17736 15.18518 25565 ft 392 kts 270°
2026-05-07 19:17 48.17827 15.14427 25957 ft 394 kts 270°
2026-05-07 19:17 48.17914 15.10312 26352 ft 396 kts 270°
2026-05-07 19:17 48.17999 15.06188 26735 ft 397 kts 270°
2026-05-07 19:18 48.18087 15.02043 27120 ft 399 kts 270°
2026-05-07 19:18 48.18176 14.97882 27497 ft 400 kts 270°
2026-05-07 19:18 48.18264 14.93705 27879 ft 402 kts 270°
2026-05-07 19:18 48.18353 14.89512 28251 ft 403 kts 270°
2026-05-07 19:19 48.18441 14.85305 28620 ft 405 kts 270°
2026-05-07 19:19 48.18528 14.81076 28969 ft 407 kts 270°
2026-05-07 19:19 48.18613 14.76836 29306 ft 408 kts 270°
2026-05-07 19:19 48.18696 14.72574 29626 ft 410 kts 270°
2026-05-07 19:20 48.18776 14.68298 29940 ft 412 kts 270°
2026-05-07 19:20 48.18859 14.63998 30222 ft 413 kts 270°
2026-05-07 19:20 48.18938 14.59744 30463 ft 415 kts 270°
2026-05-07 19:20 48.19016 14.55357 30699 ft 417 kts 270°
2026-05-07 19:21 48.19089 14.51003 30929 ft 419 kts 270°
2026-05-07 19:21 48.19162 14.46695 31146 ft 420 kts 270°
2026-05-07 19:21 48.19236 14.42306 31392 ft 421 kts 270°
2026-05-07 19:21 48.19309 14.37928 31708 ft 420 kts 270°
2026-05-07 19:22 48.19379 14.33556 32016 ft 420 kts 270°
2026-05-07 19:22 48.19447 14.29184 32317 ft 419 kts 270°
2026-05-07 19:22 48.19514 14.24816 32634 ft 419 kts 270°
2026-05-07 19:22 48.19579 14.20457 32932 ft 419 kts 270°
2026-05-07 19:23 48.19644 14.16094 33214 ft 418 kts 270°
2026-05-07 19:23 48.19706 14.11739 33512 ft 418 kts 270°
2026-05-07 19:23 48.19767 14.07383 33811 ft 418 kts 270°
2026-05-07 19:23 48.19826 14.03031 34098 ft 418 kts 270°
2026-05-07 19:24 48.19883 13.98676 34340 ft 418 kts 270°
2026-05-07 19:24 48.19937 13.94327 34572 ft 418 kts 269°
2026-05-07 19:24 48.19986 13.89973 34785 ft 418 kts 269°
2026-05-07 19:24 48.20035 13.85620 35010 ft 418 kts 270°
2026-05-07 19:25 48.20086 13.81268 35219 ft 418 kts 270°
2026-05-07 19:25 48.20134 13.76908 35429 ft 418 kts 269°
2026-05-07 19:25 48.20180 13.72549 35630 ft 418 kts 269°
2026-05-07 19:25 48.20223 13.68190 35828 ft 418 kts 269°
2026-05-07 19:26 48.20265 13.63833 36004 ft 419 kts 269°
2026-05-07 19:26 48.20305 13.59477 36060 ft 416 kts 269°
2026-05-07 19:26 48.20387 13.50845 36060 ft 413 kts 270°
2026-05-07 19:27 48.20460 13.42243 36060 ft 413 kts 269°
2026-05-07 19:27 48.20521 13.33645 36062 ft 412 kts 269°
2026-05-07 19:28 48.20577 13.25052 36065 ft 412 kts 269°
2026-05-07 19:28 48.20632 13.16463 36066 ft 412 kts 269°
2026-05-07 19:29 48.20676 13.07869 36066 ft 412 kts 269°
2026-05-07 19:29 48.20715 12.99286 36085 ft 412 kts 269°
2026-05-07 19:30 48.20747 12.90704 36076 ft 412 kts 269°
2026-05-07 19:30 48.20748 12.82127 36070 ft 411 kts 266°
2026-05-07 19:31 48.20207 12.73598 36073 ft 411 kts 264°
2026-05-07 19:31 48.19646 12.65136 36075 ft 411 kts 264°
2026-05-07 19:32 48.19080 12.56623 36072 ft 410 kts 264°
2026-05-07 19:32 48.18499 12.48053 36076 ft 410 kts 264°
2026-05-07 19:33 48.17918 12.39606 36077 ft 410 kts 264°
2026-05-07 19:33 48.17326 12.31111 36070 ft 410 kts 264°
2026-05-07 19:34 48.16732 12.22626 36069 ft 410 kts 264°
2026-05-07 19:34 48.16143 12.14142 36055 ft 409 kts 266°
2026-05-07 19:35 48.16167 12.09889 35617 ft 408 kts 275°
2026-05-07 19:35 48.16467 12.05690 35152 ft 403 kts 275°
2026-05-07 19:35 48.16761 12.01537 34711 ft 399 kts 275°
2026-05-07 19:35 48.17041 11.97427 34296 ft 394 kts 275°
2026-05-07 19:36 48.17307 11.93364 33847 ft 390 kts 275°
2026-05-07 19:36 48.17564 11.89335 33342 ft 386 kts 275°
2026-05-07 19:36 48.17819 11.85349 32829 ft 383 kts 276°
2026-05-07 19:36 48.18443 11.81493 32336 ft 381 kts 291°
2026-05-07 19:37 48.19500 11.77864 31828 ft 379 kts 292°
2026-05-07 19:37 48.20573 11.74269 31339 ft 377 kts 293°
2026-05-07 19:37 48.21643 11.70704 30874 ft 374 kts 293°
2026-05-07 19:37 48.22709 11.67158 30417 ft 372 kts 293°
2026-05-07 19:38 48.23767 11.63637 29936 ft 369 kts 293°
2026-05-07 19:38 48.24814 11.60138 29423 ft 367 kts 293°
2026-05-07 19:38 48.25851 11.56656 28933 ft 364 kts 293°
2026-05-07 19:38 48.26880 11.53197 28457 ft 361 kts 293°
2026-05-07 19:39 48.27898 11.49771 27981 ft 359 kts 293°
2026-05-07 19:39 48.28908 11.46361 27529 ft 356 kts 293°
2026-05-07 19:39 48.29909 11.42972 27079 ft 354 kts 292°
2026-05-07 19:39 48.30566 11.40745 26766 ft 352 kts 293°
2026-05-07 19:40 48.31888 11.36270 26173 ft 349 kts 293°
2026-05-07 19:40 48.32869 11.32948 25733 ft 346 kts 293°
2026-05-07 19:40 48.33842 11.29650 25304 ft 344 kts 292°
2026-05-07 19:40 48.34806 11.26373 24871 ft 342 kts 292°
2026-05-07 19:41 48.35761 11.23113 24442 ft 339 kts 292°
2026-05-07 19:41 48.36709 11.19873 24018 ft 337 kts 292°
2026-05-07 19:41 48.37639 11.16694 23604 ft 335 kts 292°
2026-05-07 19:41 48.38574 11.13493 23137 ft 333 kts 292°
2026-05-07 19:42 48.39501 11.10315 22667 ft 331 kts 292°
2026-05-07 19:42 48.40422 11.07154 22222 ft 329 kts 292°
2026-05-07 19:42 48.41040 11.05030 21937 ft 327 kts 292°
2026-05-07 19:42 48.41947 11.01902 21502 ft 325 kts 292°
2026-05-07 19:43 48.42851 10.98788 21085 ft 323 kts 292°
2026-05-07 19:43 48.43749 10.95696 20672 ft 321 kts 292°
2026-05-07 19:43 48.44644 10.92617 20273 ft 320 kts 292°
2026-05-07 19:43 48.45529 10.89562 20067 ft 319 kts 292°
2026-05-07 19:44 48.46414 10.86496 20084 ft 320 kts 292°
2026-05-07 19:44 48.47303 10.83422 20084 ft 320 kts 292°
2026-05-07 19:44 48.48192 10.80345 20084 ft 320 kts 292°
2026-05-07 19:44 48.49080 10.77266 20085 ft 320 kts 292°
2026-05-07 19:45 48.49951 10.74227 20080 ft 320 kts 292°
2026-05-07 19:45 48.50829 10.71167 19725 ft 317 kts 292°
2026-05-07 19:45 48.51714 10.68079 19327 ft 316 kts 292°
2026-05-07 19:45 48.52584 10.65047 18945 ft 314 kts 292°
2026-05-07 19:46 48.53439 10.62069 18584 ft 313 kts 292°
2026-05-07 19:46 48.54299 10.59064 18197 ft 311 kts 292°
2026-05-07 19:46 48.55154 10.56067 17788 ft 310 kts 292°
2026-05-07 19:46 48.56003 10.53091 17388 ft 308 kts 292°
2026-05-07 19:47 48.56845 10.50127 17001 ft 307 kts 292°
2026-05-07 19:47 48.57684 10.47171 16622 ft 305 kts 292°
2026-05-07 19:47 48.58516 10.44235 16252 ft 304 kts 292°
2026-05-07 19:47 48.59345 10.41306 15889 ft 302 kts 292°
2026-05-07 19:48 48.60170 10.38395 15525 ft 301 kts 292°
2026-05-07 19:48 48.60992 10.35490 15172 ft 300 kts 292°
2026-05-07 19:48 48.61811 10.32599 14823 ft 299 kts 292°
2026-05-07 19:48 48.62647 10.29723 14476 ft 298 kts 293°
2026-05-07 19:49 48.63492 10.26868 14130 ft 297 kts 293°
2026-05-07 19:49 48.64339 10.24022 13783 ft 296 kts 293°
2026-05-07 19:49 48.65180 10.21186 13403 ft 295 kts 293°
2026-05-07 19:49 48.66013 10.18364 13047 ft 293 kts 293°
2026-05-07 19:50 48.66836 10.15569 12517 ft 289 kts 293°
2026-05-07 19:50 48.67651 10.12797 11917 ft 288 kts 292°
2026-05-07 19:50 48.68463 10.10031 11578 ft 286 kts 292°
2026-05-07 19:50 48.69266 10.07288 11236 ft 284 kts 292°
2026-05-07 19:51 48.70062 10.04563 10873 ft 282 kts 292°
2026-05-07 19:51 48.70852 10.01853 10533 ft 281 kts 292°
2026-05-07 19:51 48.71637 9.99155 10182 ft 279 kts 292°
2026-05-07 19:51 48.72414 9.96490 9658 ft 274 kts 292°
2026-05-07 19:52 48.73178 9.93865 9086 ft 269 kts 292°
2026-05-07 19:52 48.73912 9.91335 8952 ft 254 kts 292°
2026-05-07 19:52 48.74602 9.88959 8636 ft 243 kts 292°
2026-05-07 19:52 48.75280 9.86614 8140 ft 243 kts 292°
2026-05-07 19:53 48.75953 9.84276 7794 ft 241 kts 292°
2026-05-07 19:53 48.76620 9.81965 7522 ft 237 kts 292°
2026-05-07 19:53 48.77277 9.79691 7198 ft 235 kts 292°
2026-05-07 19:53 48.77931 9.77428 6856 ft 234 kts 292°
2026-05-07 19:54 48.78383 9.75088 6516 ft 231 kts 277°
2026-05-07 19:54 48.78349 9.72665 6150 ft 230 kts 260°
2026-05-07 19:54 48.77984 9.70302 5763 ft 230 kts 255°
2026-05-07 19:54 48.77548 9.67967 5399 ft 230 kts 255°
2026-05-07 19:55 48.77111 9.65628 5032 ft 231 kts 255°
2026-05-07 19:55 48.76684 9.63328 4859 ft 222 kts 255°
2026-05-07 19:55 48.76277 9.61129 4977 ft 220 kts 255°
2026-05-07 19:55 48.75872 9.58944 4990 ft 213 kts 255°
2026-05-07 19:56 48.75473 9.56794 5000 ft 211 kts 255°
2026-05-07 19:56 48.75075 9.54651 5002 ft 211 kts 255°
2026-05-07 19:56 48.74682 9.52540 4957 ft 203 kts 255°
2026-05-07 19:56 48.74307 9.50528 4773 ft 194 kts 255°
2026-05-07 19:57 48.73946 9.48594 4508 ft 189 kts 255°
2026-05-07 19:57 48.73590 9.46682 4251 ft 188 kts 255°
2026-05-07 19:57 48.73234 9.44781 3999 ft 186 kts 255°
2026-05-07 19:57 48.72885 9.42914 3752 ft 182 kts 255°
2026-05-07 19:58 48.72548 9.41116 3502 ft 172 kts 255°
2026-05-07 19:58 48.72235 9.39444 3306 ft 157 kts 255°
2026-05-07 19:58 48.71943 9.37888 3086 ft 151 kts 255°
2026-05-07 19:58 48.71659 9.36375 2884 ft 148 kts 255°
2026-05-07 19:59 48.71379 9.34885 2686 ft 147 kts 255°
2026-05-07 19:59 48.71100 9.33399 2481 ft 146 kts 255°
2026-05-07 19:59 48.70822 9.31918 2275 ft 146 kts 255°
2026-05-07 19:59 48.70542 9.30435 2071 ft 146 kts 254°
2026-05-07 20:00 48.70263 9.28964 1860 ft 146 kts 255°
2026-05-07 20:00 48.69987 9.27486 1654 ft 146 kts 255°
2026-05-07 20:00 48.69705 9.26024 1454 ft 145 kts 255°
2026-05-07 20:00 48.69434 9.24561 1260 ft 144 kts 255°
2026-05-07 20:01 48.69179 9.23195 1211 ft 118 kts 254°
2026-05-07 20:01 48.69020 9.22391 1231 ft 56 kts 254°
2026-05-07 20:01 48.68941 9.21943 1250 ft 35 kts 261°
2026-05-07 20:01 48.68958 9.21646 1251 ft 23 kts 283°
2026-05-07 20:02 48.68987 9.21474 1255 ft 10 kts 284°
2026-05-07 20:02 48.68995 9.21432 1260 ft 0 kts 285°
2026-05-07 20:02 48.68996 9.21421 1258 ft 3 kts 284°
2026-05-07 20:03 48.69001 9.21391 1257 ft 6 kts 284°
2026-05-07 20:03 48.69002 9.21343 1259 ft 2 kts 257°
2026-05-07 20:03 48.68996 9.21317 1261 ft 6 kts 251°
2026-05-07 20:03 48.68987 9.21273 1263 ft 3 kts 254°
2026-05-07 20:04 48.68979 9.21228 1262 ft 11 kts 254°
2026-05-07 20:04 48.68948 9.21068 1269 ft 15 kts 253°
2026-05-07 20:04 48.68928 9.20957 1277 ft 7 kts 253°
2026-05-07 20:04 48.68913 9.20881 1280 ft 10 kts 253°
2026-05-07 20:05 48.68893 9.20774 1281 ft 14 kts 254°
2026-05-07 20:05 48.68862 9.20600 1283 ft 19 kts 253°
2026-05-07 20:05 48.68830 9.20436 1292 ft 13 kts 254°
2026-05-07 20:05 48.68812 9.20338 1298 ft 8 kts 253°
2026-05-07 20:06 48.68799 9.20276 1301 ft 4 kts 254°
2026-05-07 20:06 48.68791 9.20226 1304 ft 6 kts 255°
2026-05-07 20:06 48.68769 9.20113 1304 ft 17 kts 253°
2026-05-07 20:06 48.68763 9.19922 1304 ft 19 kts 270°
2026-05-07 20:07 48.68733 9.19725 1304 ft 20 kts 253°
2026-05-07 20:07 48.68694 9.19522 1304 ft 20 kts 251°
2026-05-07 20:07 48.68657 9.19333 1304 ft 17 kts 253°
2026-05-07 20:07 48.68655 9.19199 1304 ft 12 kts 306°
2026-05-07 20:08 48.68733 9.19163 1304 ft 12 kts 13°
2026-05-07 20:08 48.68777 9.19251 1304 ft 7 kts 38°
2026-05-07 20:08 48.68805 9.19244 1304 ft 5 kts 349°
2026-05-07 20:08 48.68835 9.19231 1304 ft 4 kts 343°
2026-05-07 20:09 48.68848 9.19226 1304 ft 2 kts 344°
2026-05-07 20:09 48.68856 9.19222 1304 ft 0 kts 345°
2026-05-07 20:10 48.68862 9.19220 1304 ft 0 kts 345°